CW4591 Weather Reports


Display with metric or nautical units.
time (UTC)temp
F
wind
direction
speed
MPH
gust
MPH
rain 1hr
in
rain 24hr
in
rain mn
in
humidity
%
barometer
mb
20260901040022 37 322 6.0 18.0 0.00 0.02 0.02 87 1004.2
20260901034522 37 359 7.0 18.0 0.00 0.02 0.02 88 1004.0
20260901033019 37 303 8.0 22.0 0.00 0.02 0.02 88 1003.8
20260901031514 37 310 8.0 23.0 0.00 0.02 0.02 88 1003.6
20260901030016 38 9 7.0 17.0 0.00 0.02 0.02 89 1003.5
20260901024511 38 320 8.0 21.0 0.00 0.02 0.02 89 1003.3
20260901023012 38 258 7.0 17.0 0.00 0.02 0.02 90 1003.1
20260901021508 37 359 6.0 22.0 0.00 0.02 0.02 91 1002.9
20260901020012 37 311 8.0 22.0 0.00 0.02 0.02 91 1002.7
20260901014504 37 303 9.0 19.0 0.00 0.02 0.02 91 1002.4
20260901013006 37 359 7.0 24.0 0.00 0.02 0.02 90 1002.2
20260901011501 38 329 8.0 20.0 0.00 0.02 0.02 90 1002.1
20260901010059 38 299 7.0 19.0 0.00 0.02 0.02 89 1002.1
20260901004558 38 284 3.0 16.0 0.00 0.02 0.02 89 1001.8
20260901003056 38 280 10.0 21.0 0.00 0.02 0.02 88 1001.6
20260901001559 38 299 9.0 17.0 0.00 0.02 0.02 87 1001.3
20260901000055 38 345 8.0 18.0 0.00 0.02 0.02 87 1001.2
20260831234557 38 317 8.0 19.0 0.00 0.02 0.02 88 1001.1
20260831233052 38 324 8.0 19.0 0.00 0.02 0.02 88 1000.8
20260831231604 38 14 5.0 16.0 0.00 0.02 0.02 89 1000.6
20260831230055 38 272 9.0 16.0 0.00 0.02 0.02 90 1000.5
20260831224619 38 347 6.0 17.0 0.00 0.02 0.02 89 1000.5
20260831223047 38 276 6.0 17.0 0.00 0.02 0.02 89 1000.5
20260831221553 38 318 9.0 20.0 0.00 0.02 0.02 88 1000.7
20260831220050 38 281 5.0 17.0 0.00 0.02 0.02 88 1000.5
20260831214548 38 272 8.0 21.0 0.00 0.02 0.02 88 1000.6
20260831213042 38 305 8.0 23.0 0.00 0.02 0.02 88 1000.3
20260831211551 38 354 6.0 18.0 0.00 0.02 0.02 88 1000.3
20260831210038 39 325 7.0 19.0 0.00 0.02 0.02 87 1000.2
20260831204538 39 313 5.0 17.0 0.00 0.02 0.02 88 1000.0
20260831203040 38 271 12.0 21.0 0.00 0.02 0.02 88 999.9
20260831201533 38 348 7.0 21.0 0.00 0.02 0.02 89 999.7
20260831200031 38 322 10.0 18.0 0.00 0.02 0.02 89 999.8
20260831194528 39 359 7.0 19.0 0.00 0.02 0.02 89 999.7
20260831193039 39 359 5.0 14.0 0.00 0.02 0.02 90 999.6
20260831191537 39 324 8.0 17.0 0.00 0.02 0.02 90 999.6
20260831190026 40 335 7.0 14.0 0.00 0.02 0.02 91 999.6
20260831184520 40 354 8.0 15.0 0.00 0.02 0.02 91 999.5
20260831183027 41 320 6.0 13.0 0.00 0.02 0.02 93 999.4
20260831181519 42 319 4.0 11.0 0.00 0.02 0.02 94 999.3
20260831180016 42 332 4.0 9.0 0.00 0.02 0.02 95 999.2
20260831174515 42 331 5.0 10.0 0.00 0.02 0.02 95 999.1
20260831173013 42 359 4.0 8.0 0.00 0.02 0.02 95 999.3
20260831171514 42 305 2.0 6.0 0.00 0.02 0.02 95 999.2
20260831170012 42 293 2.0 4.0 0.00 0.02 0.02 95 999.2
20260831164511 42 359 2.0 4.0 0.00 0.02 0.02 95 999.3
20260831163014 41 339 0.0 4.0 0.01 0.02 0.02 96 999.3
20260831161510 41 341 1.0 4.0 0.01 0.02 0.02 96 999.2
20260831160013 41 8 0.0 5.0 0.01 0.02 0.02 96 999.3
20260831154507 41 359 1.0 4.0 0.02 0.02 0.02 95 999.5
20260831153005 41 87 0.0 3.0 0.01 0.01 0.01 95 999.6
20260831151504 40 86 0.0 1.0 0.01 0.01 0.01 95 999.7
20260831150007 40 86 0.0 5.0 0.01 0.01 0.01 95 999.7
20260831144501 40 87 1.0 2.0 0.00 0.00 0.00 94 999.8
20260831143113 40 87 0.0 0.0 0.00 0.00 0.00 94 999.8
20260831141557 40 86 0.0 2.0 0.00 0.00 0.00 94 1000.0
20260831140056 40 86 0.0 2.0 0.00 0.00 0.00 94 1000.0
20260831134600 40 86 0.0 0.0 0.00 0.00 0.00 94 1000.2
20260831133054 40 86 0.0 2.0 0.00 0.00 0.00 93 1000.2
20260831131607 40 85 0.0 2.0 0.00 0.00 0.00 93 1000.3
20260831130106 40 85 0.0 0.0 0.00 0.00 0.00 93 1000.5
20260831124558 40 87 0.0 2.0 0.00 0.00 0.00 93 1000.6
20260831123051 40 87 0.0 3.0 0.00 0.00 0.00 92 1000.6
20260831121551 40 87 0.0 2.0 0.00 0.00 0.00 91 1000.8
20260831120044 40 87 0.0 2.0 0.00 0.00 0.00 91 1001.1
20260831114542 40 78 0.0 0.0 0.00 0.00 0.00 90 1001.2
20260831113042 40 78 0.0 0.0 0.00 0.00 0.00 90 1001.2
20260831111540 40 78 0.0 0.0 0.00 0.00 0.00 88 1001.3
20260831110038 40 77 0.0 0.0 0.00 0.00 0.00 88 1001.4
20260831104537 40 78 0.0 0.0 0.00 0.00 0.00 88 1001.6
20260831103036 40 78 0.0 0.0 0.00 0.00 0.00 87 1001.6
20260831101535 41 79 0.0 0.0 0.00 0.00 0.00 87 1001.7
20260831100046 41 78 0.0 0.0 0.00 0.00 0.00 86 1001.8
20260831094531 41 78 0.0 0.0 0.00 0.00 0.00 86 1001.9
20260831093040 41 77 0.0 0.0 0.00 0.00 0.00 86 1002.2
20260831091526 41 78 0.0 2.0 0.00 0.00 0.00 85 1002.3
20260831090025 41 78 0.0 0.0 0.00 0.00 0.00 85 1002.4
20260831084523 42 78 0.0 2.0 0.00 0.00 0.00 84 1002.5
20260831083023 42 78 0.0 0.0 0.00 0.00 0.00 84 1002.6
20260831081526 41 77 0.0 4.0 0.00 0.00 0.00 86 1002.6
20260831080017 41 27 0.0 2.0 0.00 0.00 0.00 86 1002.9
20260831074524 41 27 0.0 2.0 0.00 0.00 0.00 86 1003.1
20260831073018 41 27 0.0 1.0 0.00 0.00 0.00 85 1003.3
20260831071513 41 349 0.0 0.0 0.00 0.00 0.00 84 1003.5
20260831070014 41 359 0.0 0.0 0.00 0.00 0.00 83 1003.6
20260831064511 42 359 0.0 0.0 0.00 0.00 0.00 82 1003.8
20260831063009 42 349 0.0 0.0 0.00 0.00 0.00 82 1003.9
20260831061508 42 349 0.0 0.0 0.00 0.00 0.00 81 1004.0
20260831060005 43 359 0.0 0.0 0.00 0.00 0.00 80 1004.3
20260831054505 44 349 0.0 0.0 0.00 0.00 0.00 78 1004.5
20260831053008 44 359 0.0 0.0 0.00 0.00 0.00 77 1004.7
20260831051613 45 348 0.0 0.0 0.00 0.00 0.00 75 1005.0
20260831050057 46 348 0.0 0.0 0.00 0.00 0.00 73 1005.2
20260831044557 47 359 0.0 0.0 0.00 0.00 0.00 71 1005.3
20260831043055 48 348 0.0 2.0 0.00 0.00 0.00 69 1005.5
20260831041553 49 349 0.0 0.0 0.00 0.00 0.00 67 1005.7